Find Starlink 34858

NORAD ID: 65023 Int'l Des: 2025-161 Owner: SPXS Country: US Constellation: starlink operational
LEOCIRCULAR

当前视图

正在加载3D地球...

About Starlink 34858

Starlink 34858 (NORAD 65023) is a starlink constellation satellite (v2 mini) launched Jul 30, 2025 by SPXS of US. It operates in LEO, CIRCULAR orbit with a mass of 575.00 kg.

关于 Starlink 34858

正在加载描述...

即将过境

Passes for default location (London). Set your location on the main map for personalized predictions.

高度历史

Loading altitude history...

两行轨道根数

1 65023U 25161J 26166.37121801 .00013282 00000-0 45950-3 0 9997
2 65023 53.1575 200.6034 0001148 81.8072 278.3059 15.30219236 50279
Epoch: Jun 15, 2026 • Age: 22 hours

当前状态

高度 476.2 km
速度 7.63 km/s
星下点 -2.10°S, 172.42°W
发射日期 Jul 30, 2025
运行时间 0.8 years
类型 internet

技术详情

分类 Payload
质量 575.00 kg
干质量 530.00 kg
总质量 575.00 kg
长度 0.30 m
直径 4.10 m
跨度 29.00 m
形状 Box + pan
制造商 SPXS
平台类型 Starlink V2MO
阶段状态 In Orbit
所有者/国家 SPXS/US

Most Searched